Regional Weather Roundup
Issued by NWS

Home | Current Version | Previous Version | Text Only | Print | Product List | Glossary On
Versions: 1 2 3 4 5 6 7 8 9 10 11 12 13 14 15 16 17 18 19 20 21 22 23 24 25 26 27 28 29 30 31 32 33 34 35 36 37 38 39 40 41 42 43 44 45 46 47 48 49 50
000
ASUS43 KLSX 202110
RWRMO

WEATHER SUMMARY FOR MISSOURI
NATIONAL WEATHER SERVICE SPRINGFIELD MO
400 PM CDT THU JUL 20 2017

NOTE: "FAIR" INDICATES FEW OR NO CLOUDS BELOW 12,000 FEET WITH NO
       SIGNIFICANT WEATHER AND/OR OBSTRUCTIONS TO VISIBILITY.
       CURRENT SKY AND/OR WEATHER CONDITIONS ARE NOT AVAILABLE FOR
       CHILLICOTHE AND FARMINGTON.

MOZ001>031-035>038-043-044-053-054-202200-
...NORTHERN AND WESTERN MISSOURI...

CITY           SKY/WX    TMP DP  RH WIND       PRES   REMARKS
KANSAS CTY INT MOSUNNY   96  76  52 S13       29.99F HX 109
KANSAS C DTWN  MOSUNNY   98  76  49 SW8       29.96F HX 112
LEE`S SUMMIT   SUNNY     96  74  48 SW14      30.01S HX 107
ST JOSEPH      SUNNY     94  80  64 S12       29.96F HX 113
CHILLICOTHE      N/A     96  79  57 VRB6      29.98F HX 114
KIRKSVILLE     SUNNY     95  78  58 SW10      29.99F HX 111

$$
MOZ066>068-077>081-088>096-101>105-202200-
...SOUTHWEST MISSOURI...

CITY           SKY/WX    TMP DP  RH WIND       PRES   REMARKS
SPRINGFIELD    SUNNY     95  68  41 SW9       30.06F HX  99
JOPLIN         SUNNY     97  73  45 SW9       30.04F HX 107
BRANSON        MOSUNNY   95  70  43 W5        30.09F HX 101

$$
MOZ032>034-039>042-045>050-055>058-069>072-202200-
...CENTRAL MISSOURI...

CITY           SKY/WX    TMP DP  RH WIND       PRES   REMARKS
COLUMBIA       SUNNY     97  72  44 SW12      30.01F HX 105
JEFFERSON CITY MOSUNNY   96  72  45 VRB5      29.99F HX 104
ROLLA          SUNNY     94  71  47 S8        30.04F HX 101
WHITEMAN AFB   MOSUNNY   97  74  46 SW10G20   29.99F HX 108
WARRENSBURG    SUNNY     95  72  46 S13       30.00F HX 103
OSAGE BEACH    SUNNY     99  69  37 W6        30.02F HX 105

$$
MOZ051-052-059>065-202200-
...EAST CENTRAL MISSOURI...

CITY           SKY/WX    TMP DP  RH WIND       PRES   REMARKS
ST LOUIS INTL  MOSUNNY  101  68  34 W12       30.00F HX 106
SPIRIT OF STL  MOSUNNY   99  70  38 SW7       29.98F HX 106
ST CHARLES     SUNNY     99  68  36 SW7       29.98F HX 104

$$
MOZ072>076-082>087-097>100-106>115-202200-
...SOUTH CENTRAL AND SOUTHEAST MISSOURI...

CITY           SKY/WX    TMP DP  RH WIND       PRES   REMARKS
CAPE GIRARDEAU CLOUDY    93  72  50 SW5       30.03F HX 101
FARMINGTON     MOSUNNY   96  72  45 S7        30.05F HX 104
POPLAR BLUFF   MOSUNNY   93  77  59 VRB6      30.02F HX 107
WEST PLAINS    SUNNY     94  66  39 SW6       30.08F HX  97

$$




USA.gov is the U.S. government's official web portal to all federal, state and local government web resources and services.